Total_Precipitation_Accumulation
3.00 3.32 3.29 3.19 3.17 3.28 3.22 3.11 2.94 2.93 2.93 2.74 2.55 2.57 2.61 2.62 2.76 2.98 3.13 3.10 3.14 3.44 3.94 4.23 4.27 4.10 3.98 3.92 3.89 3.70 3.45 3.28 3.14 2.97 2.83 2.70 2.57 2.49 2.46 2.45 2.40 2.21 2.14
3.52 3.71 3.71 3.56 3.37 3.47 3.46 3.42 3.26 3.32 3.33 3.27 3.05 2.92 2.83 2.89 2.92 3.00 3.30 3.51 3.37 3.39 3.88 4.49 4.77 4.70 4.52 4.31 4.01 3.72 3.58 3.46 3.33 3.17 3.01 2.80 2.57 2.51 2.51 2.51 2.52 2.34 2.20
4.10 4.20 4.21 3.88 3.65 3.69 3.93 3.98 3.89 3.85 3.57 3.47 3.39 3.35 3.20 3.04 3.05 3.18 3.46 3.93 3.79 3.85 4.04 4.21 4.37 4.41 4.56 4.66 4.51 4.19 3.89 3.65 3.51 3.39 3.25 3.11 2.88 2.66 2.60 2.60 2.66 2.60 2.40
4.16 4.33 4.33 4.16 4.03 3.98 4.27 4.46 4.42 4.37 4.16 4.06 3.85 3.62 3.42 3.38 3.34 3.45 3.58 3.87 4.15 4.12 4.29 4.21 4.06 4.04 4.31 4.56 4.66 4.63 4.36 3.97 3.73 3.74 3.66 3.48 3.20 3.01 2.84 2.72 2.73 2.71 2.58
4.52 4.62 4.51 4.52 4.58 4.66 4.65 4.39 4.56 4.44 4.44 4.38 3.90 3.70 3.45 3.41 3.57 3.52 3.60 3.70 3.95 3.97 4.04 4.00 4.00 3.98 4.13 4.47 4.58 4.75 4.69 4.46 4.18 4.02 4.06 3.91 3.63 3.36 3.11 2.90 2.73 2.66 2.62
4.89 5.21 5.19 5.09 5.10 5.09 4.90 4.80 4.85 4.59 4.45 4.39 3.91 3.72 3.50 3.38 3.41 3.51 3.48 3.53 3.53 3.44 3.47 3.52 3.79 3.69 3.84 4.05 4.16 4.33 4.59 4.72 4.49 4.17 4.04 4.08 3.85 3.44 3.08 2.93 2.83 2.75 2.68
5.71 5.80 5.63 5.49 5.36 5.33 5.26 5.23 5.09 4.87 4.58 4.54 4.49 4.10 3.56 3.33 3.33 3.29 3.29 3.36 3.38 3.34 3.40 3.44 3.35 3.26 3.26 3.50 3.59 3.75 4.09 4.45 4.49 4.43 4.32 4.19 4.00 3.63 3.22 2.95 2.89 2.84 2.75
5.88 5.78 5.89 5.85 5.71 5.60 5.45 5.26 5.16 4.96 4.59 4.50 4.52 4.48 3.96 3.65 3.25 2.86 2.86 2.93 3.08 3.26 3.17 3.06 3.10 3.11 3.02 3.10 3.07 3.37 3.68 3.98 4.24 4.33 4.21 4.06 3.87 3.68 3.55 3.33 3.15 3.02 2.93
5.98 5.80 5.71 5.55 5.47 5.36 5.30 5.16 4.94 4.77 4.54 4.41 4.36 4.55 4.23 3.80 3.36 3.05 2.67 2.62 2.78 2.91 2.83 2.83 2.75 2.82 2.89 2.99 2.92 3.06 3.30 3.37 3.74 4.05 4.15 3.99 3.77 3.59 3.49 3.43 3.34 3.26 3.18
5.54 5.30 5.23 5.17 5.05 4.71 4.55 4.42 4.39 4.24 4.11 3.93 3.98 3.88 3.74 3.58 3.60 3.49 3.22 2.98 2.91 2.89 2.82 2.68 2.58 2.70 2.72 2.85 2.99 2.95 2.94 2.92 3.19 3.56 3.87 3.94 3.79 3.71 3.65 3.57 3.52 3.48 3.45
4.95 4.67 4.56 4.48 4.26 3.86 3.54 3.46 3.65 3.69 3.68 3.59 3.60 3.60 3.60 3.46 3.35 3.36 3.33 3.25 3.19 2.98 2.84 2.83 2.77 2.73 2.65 2.62 2.71 2.84 2.81 2.62 2.68 2.87 3.29 3.64 3.78 3.84 3.79 3.62 3.60 3.59 3.59
4.41 4.02 3.68 3.49 3.25 3.06 2.88 2.88 2.97 3.05 3.29 3.39 3.53 3.52 3.52 3.42 3.24 3.25 3.16 3.14 3.22 3.11 2.88 2.69 2.61 2.58 2.56 2.51 2.45 2.68 2.46 2.32 2.30 2.37 2.57 2.89 3.25 3.47 3.45 3.49 3.59 3.67 3.74
3.63 3.31 3.01 2.91 2.78 2.69 2.62 2.64 2.67 2.64 2.76 2.95 3.08 3.18 3.24 3.21 3.20 3.23 3.32 3.28 3.15 2.98 2.88 2.65 2.41 2.34 2.35 2.43 2.41 2.48 2.23 2.10 2.04 2.02 2.02 2.15 2.33 2.61 2.83 3.06 3.23 3.36 3.44
2.82 2.61 2.40 2.25 2.24 2.31 2.25 2.35 2.39 2.41 2.42 2.48 2.54 2.81 2.92 2.89 2.94 2.92 2.97 3.11 3.17 2.99 2.73 2.51 2.34 2.19 2.12 2.06 2.13 2.17 1.87 1.88 1.74 1.71 1.72 1.76 1.82 1.92 2.10 2.26 2.39 2.46 2.54
2.15 2.00 1.91 1.88 1.86 1.93 2.06 2.11 2.06 2.10 2.22 2.25 2.29 2.44 2.45 2.42 2.50 2.58 2.69 2.81 3.03 3.02 2.73 2.39 2.23 2.06 1.90 1.81 1.91 1.70 1.61 1.62 1.46 1.39 1.39 1.43 1.46 1.54 1.63 1.71 1.85 1.87 1.86
1.85 1.81 1.74 1.68 1.64 1.63 1.67 1.77 1.83 1.88 1.92 2.04 2.12 2.16 2.16 2.09 2.15 2.24 2.43 2.59 2.68 2.75 2.61 2.18 1.91 1.77 1.70 1.58 1.73 1.55 1.53 1.51 1.27 1.22 1.21 1.30 1.38 1.44 1.45 1.48 1.52 1.61 1.61
1.63 1.59 1.52 1.44 1.39 1.38 1.43 1.55 1.59 1.63 1.69 1.80 1.91 1.92 1.94 1.93 2.01 2.02 2.06 2.11 2.26 2.39 2.35 2.03 1.83 1.76 1.72 1.63 1.65 1.62 1.57 1.47 1.26 1.24 1.16 1.19 1.27 1.29 1.28 1.29 1.28 1.33 1.44
1.55 1.52 1.41 1.31 1.23 1.22 1.26 1.31 1.33 1.37 1.51 1.57 1.61 1.67 1.65 1.70 1.77 1.74 1.79 1.81 1.91 2.07 2.12 2.08 1.97 1.91 1.82 1.69 1.72 1.71 1.43 1.25 1.21 1.22 1.12 1.05 1.07 1.08 1.10 1.11 1.11 1.09 1.12
1.54 1.44 1.29 1.22 1.16 1.12 1.13 1.17 1.23 1.26 1.33 1.41 1.42 1.48 1.50 1.56 1.52 1.45 1.50 1.60 1.65 1.71 1.93 1.95 1.84 1.79 1.68 1.57 1.73 1.63 1.49 1.58 1.23 1.16 1.06 0.98 0.96 0.92 0.94 0.95 0.97 0.96 0.92
1.45 1.37 1.30 1.23 1.17 1.10 1.10 1.11 1.12 1.24 1.28 1.29 1.27 1.29 1.27 1.30 1.34 1.39 1.41 1.56 1.64 1.77 1.86 1.86 1.79 1.73 1.65 1.58 1.73 1.72 1.69 1.65 1.39 1.07 1.03 0.90 0.92 0.89 0.87 0.86 0.85 0.85 0.84
1.45 1.39 1.31 1.24 1.14 1.02 0.94 0.96 0.99 1.06 1.18 1.20 1.19 1.14 1.12 1.16 1.25 1.28 1.24 1.37 1.53 1.70 1.70 1.70 1.68 1.70 1.62 1.68 1.64 1.59 1.65 1.71 1.59 1.34 1.35 1.10 1.02 1.04 1.02 0.95 0.88 0.86 0.82
1.41 1.36 1.25 1.12 1.04 0.92 0.93 0.91 0.93 1.01 1.10 1.15 1.11 1.09 1.05 1.03 1.06 1.10 1.08 1.16 1.34 1.48 1.58 1.66 1.66 1.67 1.65 1.73 1.76 1.74 1.75 1.81 1.77 1.48 1.54 1.44 1.29 1.34 1.22 1.08 0.98 0.85 0.78
1.40 1.32 1.20 1.15 1.10 1.01 0.90 0.80 0.84 0.94 1.07 1.06 1.06 1.10 0.97 0.87 0.98 1.00 1.03 1.04 1.07 1.13 1.26 1.48 1.64 1.69 1.81 1.95 2.04 1.96 1.90 1.86 1.86 1.66 1.78 1.71 1.54 1.57 1.26 1.09 1.12 0.95 0.82
1.30 1.30 1.28 1.31 1.31 1.07 0.85 0.72 0.81 0.98 1.07 0.96 0.91 0.98 1.04 1.06 0.98 0.99 1.01 1.04 1.06 1.06 1.09 1.16 1.43 1.54 1.58 1.79 2.01 2.05 2.03 1.94 1.92 1.89 2.00 1.95 1.58 1.49 1.30 1.45 1.41 1.20 1.01
1.21 1.24 1.27 1.32 1.29 1.13 0.92 0.76 0.80 0.93 1.03 0.99 0.95 0.90 0.90 0.94 0.93 0.98 1.08 1.23 1.27 1.24 1.00 1.04 1.17 1.26 1.32 1.47 1.64 1.85 2.05 2.15 2.06 1.93 1.92 1.94 1.70 1.59 1.60 1.78 1.67 1.57 1.33
1.10 1.10 1.15 1.25 1.20 1.08 0.88 0.71 0.72 0.76 0.88 1.02 1.12 1.10 1.04 0.95 0.92 0.98 1.12 1.31 1.37 1.35 1.33 1.44 1.54 1.53 1.51 1.56 1.53 1.71 2.04 2.18 2.12 2.05 1.90 1.94 1.90 1.86 1.94 1.93 1.91 1.78 1.68